GFSFLT2_sfc_dewp_225.txt.gz
Dewpoint
69 69 70 70 69 69 69 70 70 71 71 71 71 71 70 71 71 71 71 70 70 69 69 68 68 67 65 64 65 64 63 62
69 70 69 70 70 69 69 69 69 70 70 70 70 70 70 70 70 71 70 69 69 69 68 68 68 66 65 64 64 62 63 63
69 69 69 70 69 69 69 69 69 69 70 69 69 68 69 69 68 70 69 68 68 68 67 67 66 65 65 65 64 58 59 63
68 69 69 69 67 69 69 68 67 68 68 69 68 69 69 67 67 69 68 67 67 67 67 66 65 63 63 63 60 59 60 63
67 68 69 68 67 67 67 67 68 68 69 69 68 68 69 67 67 67 67 67 65 65 65 64 64 63 63 63 61 63 63 62
65 67 68 68 67 67 66 66 67 67 67 69 67 66 67 67 66 67 67 65 65 65 64 65 65 64 65 64 62 63 62 64
65 66 68 68 68 67 67 66 67 66 67 67 66 63 65 65 66 66 66 65 64 64 64 64 64 64 64 64 62 62 65 64
65 66 68 68 68 68 67 67 67 67 66 66 67 63 64 64 65 65 65 65 64 63 63 63 62 63 64 64 62 61 64 66
64 66 67 68 68 68 67 67 67 66 66 67 67 65 65 64 63 64 64 65 66 65 64 63 63 62 62 62 61 60 62 65
62 63 66 67 67 67 66 66 67 66 66 66 67 66 65 64 62 63 64 65 64 64 63 62 62 61 61 60 60 60 60 63
63 64 64 66 67 66 67 67 66 65 65 65 67 66 65 63 61 62 65 64 64 63 63 62 60 60 60 60 60 59 60 59
63 64 64 65 65 66 65 65 65 65 65 65 66 65 65 64 62 63 64 62 62 63 63 62 61 60 57 57 60 60 61 63
64 65 66 64 63 63 63 64 64 64 64 65 65 66 66 65 63 63 64 62 62 63 63 62 61 62 62 61 61 62 62 62
64 65 66 65 64 63 63 63 63 63 64 65 65 65 66 64 64 63 63 61 63 63 63 62 62 64 61 60 59 62 63 64
61 65 66 65 65 64 63 63 63 62 63 63 64 65 65 65 64 64 64 64 62 64 64 64 61 63 63 61 60 58 62 63
55 61 65 66 66 64 64 62 62 62 63 62 63 64 64 65 65 64 64 64 63 63 64 64 64 63 64 64 65 63 60 60
47 53 62 65 66 65 64 64 64 65 66 64 65 65 64 64 65 65 65 65 65 65 65 65 64 63 64 64 64 63 62 60
55 54 58 64 66 66 66 65 65 65 66 65 65 66 66 65 65 66 66 65 65 66 66 66 66 65 65 65 64 62 61 59
42 55 60 64 66 66 66 65 66 66 66 67 66 66 66 66 67 67 67 67 67 67 67 67 67 66 66 65 66 65 64 62
46 44 56 63 66 66 67 66 65 65 66 67 67 67 67 67 68 68 67 67 67 68 68 67 67 67 67 66 65 65 65 63

GFSFLT2_sfc_dewp_228.txt.gz
Dewpoint
66 67 69 70 70 70 70 70 71 71 71 71 71 71 71 71 71 71 71 71 70 70 69 69 68 67 65 65 65 64 62 58
66 67 67 68 69 69 69 70 70 70 71 71 70 70 71 71 71 71 70 70 70 69 69 68 68 67 65 65 63 64 62 60
68 67 67 68 67 68 69 70 70 70 70 70 69 64 66 69 68 70 70 68 68 68 68 68 67 66 66 65 64 57 61 61
67 68 67 67 63 67 66 65 66 67 67 69 65 64 63 61 66 69 69 68 68 68 68 67 66 62 61 63 59 58 60 61
66 68 68 67 64 64 63 63 63 64 66 67 65 65 65 62 63 66 66 67 63 65 65 63 63 62 61 61 59 59 57 60
64 65 68 68 63 63 63 62 62 62 64 67 64 64 65 63 60 61 63 62 61 62 61 63 63 63 63 63 62 59 57 60
63 64 67 67 66 64 64 64 63 62 63 66 63 61 62 61 61 60 61 61 61 61 61 61 62 63 62 63 62 61 62 61
62 63 67 67 67 67 65 65 64 63 62 62 66 60 61 60 61 61 61 61 61 61 60 61 61 61 62 64 63 61 60 63
61 64 66 67 68 67 66 65 65 64 62 64 65 63 61 61 59 60 60 61 63 62 62 62 60 61 62 61 62 62 59 61
60 60 64 67 67 67 66 65 66 64 63 63 66 64 62 63 59 59 59 61 61 61 61 60 59 59 60 59 59 60 59 58
58 62 63 66 67 66 67 67 66 64 63 63 65 65 63 62 58 58 61 60 61 60 60 60 57 57 57 58 58 57 57 55
58 61 63 65 64 65 64 64 64 64 63 62 64 65 65 64 59 60 61 59 59 59 60 60 59 57 53 53 57 57 57 57
61 62 64 63 63 62 62 62 62 63 62 64 64 65 66 65 62 61 62 60 59 61 60 61 58 59 57 57 57 60 62 60
61 62 65 65 63 63 62 62 62 62 62 64 65 65 66 65 65 62 62 60 61 62 62 59 58 58 58 56 54 57 62 63
58 61 64 66 65 64 64 63 64 63 63 63 65 65 66 68 66 65 65 64 61 64 63 62 57 59 62 57 55 56 57 62
48 57 61 65 67 64 65 63 62 63 64 64 64 66 65 66 67 66 67 64 64 63 63 64 62 58 61 62 63 59 58 57
48 54 57 63 67 66 65 65 64 63 64 65 66 66 66 65 66 66 67 66 66 66 65 66 62 61 59 61 62 61 63 61
48 48 50 59 65 67 68 67 66 62 64 64 64 64 65 66 66 67 68 66 66 65 67 66 64 64 63 62 60 61 61 62
47 48 46 54 64 66 67 68 68 66 65 65 64 64 65 66 67 67 66 67 66 66 66 66 66 66 66 64 64 64 64 63
44 43 49 51 57 65 66 65 64 64 65 64 64 64 65 68 68 67 67 66 66 66 67 67 68 68 68 68 66 66 67 66

GFSFLT2_sfc_dewp_231.txt.gz
Dewpoint
64 66 69 70 70 70 70 70 71 71 71 71 71 71 71 71 71 71 71 71 71 70 70 69 68 67 66 65 63 65 63 55
66 66 66 67 69 69 70 70 70 71 71 71 70 70 71 71 71 71 71 71 70 69 69 68 68 66 65 65 62 64 62 56
66 66 66 67 65 67 70 70 70 70 70 71 68 63 66 69 66 70 70 69 69 69 68 68 68 66 66 65 65 58 59 58
65 66 66 66 62 66 66 66 67 67 66 69 65 62 62 61 65 69 69 68 68 68 68 68 66 62 61 64 59 58 59 59
64 66 68 66 62 63 61 62 62 64 66 67 66 62 63 60 63 66 64 67 65 65 65 64 63 62 59 61 58 59 57 57
62 64 66 68 62 62 61 59 61 61 62 68 66 62 63 61 59 62 62 60 62 63 62 64 63 63 62 62 62 61 56 56
62 64 67 66 68 62 62 62 61 60 61 65 63 62 65 63 61 59 60 59 59 60 61 61 61 62 63 63 63 61 60 58
62 62 68 66 66 68 65 65 63 61 61 62 66 61 64 61 61 59 58 59 59 59 60 59 61 62 63 63 62 61 60 60
62 65 67 68 69 68 66 64 63 62 61 67 67 64 65 64 60 61 60 61 65 63 64 61 60 61 62 62 62 63 61 60
60 59 64 68 68 67 65 63 65 63 63 62 67 66 64 65 59 60 60 61 60 61 61 59 60 59 61 59 59 61 62 62
57 63 63 68 68 66 67 68 65 63 63 62 67 66 65 64 60 60 64 60 61 61 61 61 58 58 57 58 59 57 59 56
55 62 65 68 66 67 64 63 65 64 63 63 66 66 66 65 61 62 62 59 59 59 62 61 59 57 52 53 59 58 58 58
53 61 66 64 64 64 64 64 64 64 63 65 66 66 68 67 64 63 64 61 61 63 63 63 60 61 57 57 56 60 61 59
56 58 64 64 63 63 63 63 63 63 64 65 66 66 68 67 66 63 63 61 64 64 64 61 60 61 58 57 55 57 59 62
55 60 64 65 65 64 63 64 64 62 63 64 65 66 68 68 68 66 65 64 62 65 65 64 60 61 63 58 55 54 57 61
56 58 62 66 68 65 65 62 62 62 64 64 65 67 67 68 69 68 68 65 65 65 65 65 65 61 62 61 63 62 56 56
52 53 56 63 67 68 66 66 64 64 65 67 67 68 68 67 69 69 68 68 67 67 66 67 65 64 62 62 64 63 64 61
51 54 50 54 64 69 69 68 67 64 65 65 66 67 68 68 68 69 69 68 68 68 68 68 67 66 65 64 62 62 62 62
46 48 51 53 59 67 70 69 69 68 67 66 67 66 67 69 69 69 69 69 69 68 69 68 68 66 67 65 65 64 64 63
45 46 50 53 56 62 68 69 67 68 67 66 66 66 67 69 70 70 70 69 69 69 68 68 68 68 68 68 66 66 66 66

GFSFLT2_sfc_dewp_237.txt.gz
Dewpoint
70 71 71 71 70 70 70 70 71 71 71 71 71 71 71 71 72 71 71 71 70 69 68 67 67 66 64 64 64 65 63 61
69 70 71 70 70 69 69 69 70 70 70 70 70 70 70 71 71 71 71 70 69 69 68 67 66 65 64 64 64 65 59 60
69 70 70 69 69 69 69 70 70 70 70 70 69 69 69 70 70 70 70 69 69 69 68 67 66 65 65 65 65 61 59 60
66 68 69 69 69 69 68 69 69 69 69 69 68 67 68 69 69 69 69 68 68 68 68 67 67 64 64 65 63 60 60 63
64 65 67 67 66 68 68 69 69 68 68 68 67 65 66 67 67 68 68 68 67 67 67 67 65 64 64 62 61 59 61 63
64 64 64 64 64 66 67 67 67 67 67 68 66 63 64 63 65 66 67 67 66 66 66 65 65 64 64 64 62 62 62 64
64 64 64 62 64 63 64 65 66 66 66 68 66 65 63 61 65 65 65 65 66 65 64 65 64 64 64 64 63 63 63 62
64 65 64 63 64 62 62 63 64 64 65 66 66 64 65 61 63 65 64 63 64 64 64 64 64 64 63 63 64 63 62 61
64 65 65 64 64 63 61 62 62 63 64 65 66 65 64 62 62 64 63 61 62 62 61 62 63 63 62 62 62 61 62 62
63 64 65 65 64 65 61 61 62 61 63 64 66 65 65 65 64 62 63 61 62 60 60 60 61 62 61 62 62 62 62 62
62 63 65 65 64 66 64 63 63 60 63 62 65 65 64 65 64 63 63 63 61 62 60 60 61 61 61 62 62 62 62 61
62 63 65 65 65 65 66 63 64 63 61 63 64 64 63 64 63 62 62 62 62 62 61 62 61 61 60 59 60 61 60 61
61 62 65 66 65 64 64 65 64 63 64 61 64 65 64 62 63 61 62 61 60 61 61 60 61 60 59 59 58 59 60 59
61 61 64 65 65 66 64 64 65 64 64 64 63 65 65 63 61 62 60 61 60 60 60 60 60 61 58 57 55 55 57 59
60 61 63 65 65 66 66 65 65 64 64 64 64 64 64 64 63 61 62 60 61 60 60 59 58 60 59 57 55 54 55 58
59 60 61 64 65 65 65 64 63 64 64 64 64 64 65 65 64 63 62 62 60 60 60 61 59 58 60 60 58 58 55 55
58 60 61 61 64 64 64 64 63 63 64 63 64 64 64 65 65 64 63 62 62 60 60 61 61 59 59 59 59 59 58 58
56 59 60 60 62 63 63 63 63 63 62 63 63 64 64 64 65 65 64 64 62 62 61 61 61 61 59 60 59 57 57 58
55 57 60 61 61 62 63 62 62 62 62 62 63 63 64 64 64 65 66 65 64 63 62 61 62 61 62 60 60 60 60 59
44 50 53 61 62 62 62 62 62 62 62 62 63 63 64 65 65 64 65 66 66 65 64 62 62 62 61 62 61 60 62 62